This is the latest recevied weather packets stored in our database for station/object IONIA-WX. If no packets are shown the sender has not sent any weather packets the latest 10 day(s).
| Time | Temp. | Humidity | Pressure | Rain* | Wind** | Luminosity | Snow |
|---|---|---|---|---|---|---|---|
| 1788503437 | 19.44° C | 93% | 985.1 hPa | 0 mm | - | - | - |
| 1788502516 | 19.44° C | 93% | 985.1 hPa | 0 mm | - | - | - |
| 1788501616 | 19.44° C | 93% | 985.1 hPa | 0 mm | - | - | - |
| 1788500718 | 20° C | 93% | 986 hPa | 0 mm | - | - | - |
| 1788499817 | 20° C | 93% | 984.6 hPa | 0 mm | - | - | - |
| 1788498916 | 20° C | 93% | 984.6 hPa | 0 mm | - | - | - |
| 1788498018 | 20° C | 93% | 984.6 hPa | 0 mm | - | - | - |
| 1788497117 | 20° C | 93% | 985 hPa | 0 mm | - | - | - |
| 1788496217 | 20° C | 93% | 984.4 hPa | 0 mm | - | - | - |
| 1788495315 | 20.56° C | 93% | 984.4 hPa | 0 mm | - | - | - |
| 1788494415 | 20.56° C | 93% | 984.4 hPa | 0 mm | - | - | - |
| 1788493518 | 20.56° C | 92% | 985.4 hPa | 0 mm | - | - | - |
| 1788492617 | 20.56° C | 91% | 985.1 hPa | 0 mm | - | - | - |
| 1788491716 | 20.56° C | 91% | 985.1 hPa | 0 mm | - | - | - |
| 1788490815 | 20.56° C | 91% | 985.1 hPa | 0 mm | - | - | - |
| 1788489916 | 21.11° C | 88% | 984.8 hPa | 0 mm | - | - | - |
| 1788489016 | 21.67° C | 86% | 984.3 hPa | 0 mm | - | - | - |
| 1788488117 | 21.67° C | 86% | 984.3 hPa | 0 mm | - | - | - |
| 1788487218 | 21.67° C | 86% | 984.3 hPa | 0 mm | - | - | - |
| 1788486316 | 21.67° C | 90% | 983.8 hPa | 0 mm | - | - | - |
| 1788485415 | 21.67° C | 90% | 983.8 hPa | 0 mm | - | - | - |
| 1788484515 | 21.67° C | 90% | 983.7 hPa | 0 mm | - | - | - |
| 1788483618 | 22.22° C | 90% | 983.7 hPa | 0 mm | - | - | - |
| 1788482717 | 22.22° C | 86% | 983.7 hPa | 0 mm | - | - | - |
| 1788481816 | 22.22° C | 79% | 984.1 hPa | 0 mm | - | - | - |
* Rain latest hour (hover to see other rain measurements)
** Current wind speed in m/s (hover to see current wind gust speed)